Stations météo

réclame
Mon MeteoGroup
Bournemouth Airport, Grande-Bretagne (3862): Température de l'air & dewpoint: 12.10.2019 03:00:00 - 18.10.2019 03:00:00 (BST)Bournemouth Airport, Grande-Bretagne (3862): Température de l'air -20cm & Température de l'air -100cm: 12.10.2019 03:00:00 - 18.10.2019 03:00:00 (BST)Bournemouth Airport, Grande-Bretagne (3862): Vitesse du vent & gusts: 12.10.2019 03:00:00 - 18.10.2019 03:00:00 (BST)Bournemouth Airport, Grande-Bretagne (3862): Direction du vent: 12.10.2019 03:00:00 - 18.10.2019 03:00:00 (BST)Bournemouth Airport, Grande-Bretagne (3862): reduced air pressure: 12.10.2019 03:00:00 - 18.10.2019 03:00:00 (BST)Bournemouth Airport, Grande-Bretagne (3862): visibility: 12.10.2019 03:00:00 - 18.10.2019 03:00:00 (BST)Bournemouth Airport, Grande-Bretagne (3862): Ensoleillement: 12.10.2019 03:00:00 - 18.10.2019 03:00:00 (BST)Bournemouth Airport, Grande-Bretagne (3862): Quantités de précipitations: 12.10.2019 03:00:00 - 18.10.2019 03:00:00 (BST)
Date & Time tt [°C] td [°C] tt -20cm [°C] tt -100cm [°C] ff [km/h] ff [knt] fx [km/h] fx [knt] dd ppp [hPa] vv [km] sd [min] rr [mm]
18.10.2019 03:00:00 10,8 9,6 - - 26 14 - - WSW 997,9 7 0 -
18.10.2019 02:00:00 10,8 9,3 - - 15 8 - - SSW 998,8 30 0 0,8
18.10.2019 01:00:00 11,9 10,2 - - 24 13 - - SSW 999,9 8 - 1,8
18.10.2019 00:00:00 10,1 9,2 - - 22 12 50 27 W 1001,2 0,9 0 4,8
17.10.2019 23:00:00 13,4 10,3 - - 18 10 - - SSW 1001,0 28 0 0,0
17.10.2019 22:00:00 12,6 10,3 - - 13 7 - - SSW 1002,0 10 0 0,2
17.10.2019 21:00:00 13,1 10,2 - - 15 8 - - SW 1002,6 10 0 0,0
17.10.2019 20:00:00 13,0 9,6 - - 13 7 - - SW 1003,1 30 0 0,0
17.10.2019 19:00:00 13,4 9,3 - - 15 8 - - SW 1003,2 30 0 0,0
17.10.2019 18:00:00 13,8 10,9 - - 16 9 - - SSW 1003,4 30 6 0,0
17.10.2019 17:00:00 14,8 10,1 - - 21 11 - - SW 1003,6 10 12 0,0
17.10.2019 16:00:00 15,0 10,1 - - 28 15 - - SW 1003,8 40 24 0,2
17.10.2019 15:00:00 14,7 10,7 - - 18 10 - - SW 1004,1 23 18 0,0
17.10.2019 14:00:00 15,0 9,2 - - 22 12 - - SW 1004,6 45 42 0,0
17.10.2019 13:00:00 14,4 11,2 - - 15 8 - - SW 1004,9 10 30 0,0
17.10.2019 12:00:00 14,9 11,9 - - 15 8 - - SW 1005,2 50 48 0,0
17.10.2019 11:00:00 12,8 11,8 - - 15 8 - - SSW 1005,2 10 0 1,4
17.10.2019 10:00:00 10,4 10,3 13,7 14,0 5 3 - - ENE 1005,7 0,9 0 1,2
17.10.2019 09:00:00 9,2 9,2 - - 2 1 - - NE 1006,1 10 0 0,0
17.10.2019 08:00:00 5,9 5,5 - - 2 1 - - ENE 1006,1 2,6 0 0,0
17.10.2019 07:00:00 8,2 8,2 - - 4 2 - - E 1006,2 10 0 0,2
17.10.2019 06:00:00 7,9 7,7 - - 2 1 - - E 1006,5 10 0 0,0
17.10.2019 05:00:00 7,5 7,3 - - 5 3 - - E 1006,8 0,4 0 0,0
17.10.2019 04:00:00 9,0 8,6 - - 2 1 - - E 1006,8 12 0 0,0
17.10.2019 03:00:00 9,4 9,1 - - 2 1 - - WSW 1007,1 5 0 0,0
17.10.2019 02:00:00 9,7 9,1 - - 2 1 - - SSW 1007,1 6 0 0,0
17.10.2019 01:00:00 10,5 10,1 - - 4 2 - - S 1007,0 14 - 0,0
17.10.2019 00:00:00 10,0 9,3 - - 2 1 - - NW 1006,8 4,5 0 0,2
16.10.2019 23:00:00 11,6 10,6 - - 2 1 - - S 1006,5 10 0 0,0
16.10.2019 22:00:00 11,3 9,8 - - 2 1 - - NNW 1006,0 10 0 0,0
16.10.2019 21:00:00 11,6 10,4 - - 0 0 - - N 1005,8 23 0 0,0
16.10.2019 20:00:00 12,0 10,1 - - 4 2 - - W 1005,4 10 0 0,0
16.10.2019 19:00:00 12,5 10,0 - - 4 2 - - NNW 1004,9 10 0 0,0
16.10.2019 18:00:00 13,4 9,3 - - 4 2 - - W 1004,3 30 12 0,0
16.10.2019 17:00:00 14,0 8,8 - - 8 4 - - NNW 1004,0 30 24 0,0
16.10.2019 16:00:00 15,5 8,9 - - 8 4 - - - 1003,9 10 36 0,0
16.10.2019 15:00:00 14,9 8,9 - - 11 6 - - WNW 1004,0 35 0 0,0
16.10.2019 14:00:00 15,0 7,7 - - 16 9 - - WNW 1003,8 10 18 0,0
16.10.2019 13:00:00 14,6 9,4 - - 13 7 - - W 1003,5 10 0 0,0
16.10.2019 12:00:00 14,2 9,5 - - 22 12 - - W 1003,5 10 36 0,0
16.10.2019 11:00:00 13,1 10,1 - - 16 9 - - WSW 1003,3 26 36 0,0
16.10.2019 10:00:00 13,1 11,7 13,7 14,0 11 6 - - WSW 1002,5 10 6 0,0
16.10.2019 09:00:00 11,9 10,5 - - 26 14 - - WNW 1002,3 7 0 0,0
16.10.2019 08:00:00 13,4 12,1 - - 22 12 - - WNW 1000,8 70 0 0,0
16.10.2019 07:00:00 15,4 14,9 - - 16 9 - - WSW 1000,0 30 0 0,2
16.10.2019 06:00:00 15,6 15,3 - - 16 9 - - SSW 999,2 3,3 0 1,2
16.10.2019 05:00:00 15,3 15,0 - - 21 11 - - SSW 999,5 1,9 0 1,4
16.10.2019 04:00:00 14,3 13,9 - - 24 13 48 26 SSE 1000,0 1,2 0 1,0
16.10.2019 03:00:00 14,1 13,5 - - 24 13 46 25 SSE 1001,2 2,7 0 3,4
16.10.2019 02:00:00 14,2 13,1 - - 28 15 48 26 S 1002,3 2,0 0 0,4
16.10.2019 01:00:00 14,6 12,6 - - 21 11 - - S 1003,4 25 - 0,4
16.10.2019 00:00:00 14,9 11,9 - - 24 13 - - SSW 1004,2 25 0 0,0
15.10.2019 23:00:00 14,2 11,8 - - 15 8 - - S 1004,9 10 0 0,0
15.10.2019 22:00:00 12,7 10,5 - - 8 4 - - S 1005,5 10 0 0,0
15.10.2019 21:00:00 11,7 9,2 - - 8 4 - - SSW 1005,8 35 0 0,0
15.10.2019 20:00:00 12,1 9,0 - - 13 7 - - WSW 1005,8 40 0 0,0
15.10.2019 19:00:00 12,5 9,4 - - 15 8 - - WSW 1005,7 10 0 0,0
15.10.2019 18:00:00 14,0 10,7 - - 18 10 - - WSW 1005,0 40 42 0,0
15.10.2019 17:00:00 15,3 10,4 - - 18 10 - - WSW 1004,6 55 54 0,0
15.10.2019 16:00:00 15,4 10,3 - - 18 10 - - WSW 1004,5 50 18 0,0
15.10.2019 15:00:00 15,8 11,9 - - 13 7 - - S 1004,2 45 30 0,0
15.10.2019 14:00:00 16,6 11,9 - - 9 5 - - - 1004,2 10 30 0,0
15.10.2019 13:00:00 14,5 12,3 - - 8 4 - - SSE 1004,5 35 30 0,0
15.10.2019 12:00:00 12,5 12,5 - - 2 1 - - NE 1004,6 23 0 0,0
15.10.2019 11:00:00 12,0 11,9 - - 5 3 - - E 1004,4 1,5 0 0,0
15.10.2019 10:00:00 10,7 10,6 13,4 14,0 4 2 - - - 1004,0 0,2 0 0,0
15.10.2019 09:00:00 10,1 10,1 - - 4 2 - - NE 1003,6 0,2 0 0,0
15.10.2019 08:00:00 10,2 10,1 - - 4 2 - - E 1003,3 0,3 0 0,0
15.10.2019 07:00:00 10,3 10,3 - - 0 0 - - N 1003,1 0,1 0 0,0
15.10.2019 06:00:00 10,2 10,1 - - 5 3 - - NNE 1002,8 0,1 0 0,0
15.10.2019 05:00:00 10,0 10,0 - - 4 2 - - N 1002,7 0,5 0 0,0
15.10.2019 04:00:00 9,3 9,3 - - 4 2 - - N 1002,4 0,1 0 0,2
15.10.2019 03:00:00 8,2 8,1 - - 5 3 - - NNE 1002,9 0,3 0 0,0
15.10.2019 02:00:00 8,0 7,7 - - 4 2 - - ENE 1002,7 0,1 0 0,0
15.10.2019 01:00:00 10,4 10,1 - - 5 3 - - SE 1002,6 6 - 0,0
15.10.2019 00:00:00 9,8 9,1 - - 5 3 - - WNW 1002,2 7 0 0,0
14.10.2019 23:00:00 10,8 10,2 - - 8 4 - - W 1002,3 10 0 0,0
14.10.2019 22:00:00 11,1 10,5 - - 9 5 - - WNW 1001,8 10 0 0,0
14.10.2019 21:00:00 11,3 10,8 - - 13 7 - - W 1001,3 30 0 0,0
14.10.2019 20:00:00 11,5 11,1 - - 15 8 - - WNW 1000,6 17 0 0,0
14.10.2019 19:00:00 12,0 11,7 - - 9 5 - - WNW 1000,4 7 0 0,0
14.10.2019 18:00:00 12,1 11,7 - - 8 4 - - N 999,5 10 0 0,0
14.10.2019 17:00:00 12,1 11,7 - - 13 7 - - N 1000,1 35 0 0,2
14.10.2019 16:00:00 11,9 11,4 - - 11 6 - - N 1000,3 10 0 0,4
14.10.2019 15:00:00 11,8 11,5 - - 13 7 - - N 1001,0 2,8 0 1,4
14.10.2019 14:00:00 12,0 11,6 - - 16 9 - - NNE 1002,0 3,0 0 4,2
14.10.2019 13:00:00 12,1 11,5 - - 15 8 - - ENE 1003,7 2,3 0 1,0
14.10.2019 12:00:00 12,2 11,4 - - 15 8 - - ENE 1004,7 11 0 0,2
14.10.2019 11:00:00 11,7 11,1 - - 16 9 - - ENE 1005,5 7 0 1,0
14.10.2019 10:00:00 11,4 10,6 13,7 14,2 15 8 - - ENE 1006,6 10 0 0,2
14.10.2019 09:00:00 11,6 10,8 - - 15 8 - - E 1007,3 6 0 0,8
14.10.2019 08:00:00 12,2 11,6 - - 15 8 - - ESE 1007,8 9 0 1,2
14.10.2019 07:00:00 11,7 10,8 - - 5 3 - - E 1008,1 10 0 0,6
14.10.2019 06:00:00 13,5 10,4 - - 11 6 - - SE 1008,6 18 0 0,2
14.10.2019 05:00:00 13,7 11,6 - - 16 9 - - SSE 1009,2 27 0 0,0
14.10.2019 04:00:00 10,8 10,4 - - 4 2 - - E 1009,5 35 0 0,0
14.10.2019 03:00:00 10,5 10,1 - - 9 5 - - E 1009,6 30 0 0,0
14.10.2019 02:00:00 10,1 9,8 - - 5 3 - - ENE 1010,1 28 0 0,0
14.10.2019 01:00:00 9,6 9,3 - - 4 2 - - ESE 1010,5 26 - 0,0
14.10.2019 00:00:00 9,5 9,0 - - 5 3 - - E 1010,7 30 0 0,0
13.10.2019 23:00:00 10,3 10,1 - - 5 3 - - E 1010,4 10 0 0,0
13.10.2019 22:00:00 10,0 8,9 - - 4 2 - - WSW 1010,2 10 0 0,0
13.10.2019 21:00:00 10,7 9,0 - - 8 4 - - SW 1009,6 10 0 0,0
13.10.2019 20:00:00 11,1 8,2 - - 5 3 - - SW 1009,1 10 0 0,0
13.10.2019 19:00:00 12,2 9,3 - - 8 4 - - WSW 1008,3 10 0 0,0
13.10.2019 18:00:00 13,5 8,7 - - 9 5 - - WSW 1007,4 75 48 0,0
13.10.2019 17:00:00 15,3 8,9 - - 26 14 - - W 1006,5 10 60 0,0
13.10.2019 16:00:00 16,2 10,6 - - 24 13 - - W 1005,3 10 36 0,0
13.10.2019 15:00:00 15,7 12,0 - - 22 12 - - WSW 1004,2 45 0 0,0
13.10.2019 14:00:00 15,2 12,6 - - 24 13 - - WSW 1003,2 45 0 0,0
13.10.2019 13:00:00 15,5 13,3 - - 26 14 - - WSW 1002,5 10 0 0,0
13.10.2019 12:00:00 15,0 13,8 - - 22 12 - - WSW 1001,4 21 0 0,4
13.10.2019 11:00:00 15,3 13,7 - - 24 13 50 27 SW 1000,2 10 0 0,0
13.10.2019 10:00:00 16,4 14,9 14,0 14,2 35 19 54 29 SSW 998,8 6 0 0,6
13.10.2019 09:00:00 16,5 14,9 - - 26 14 46 25 S 999,0 10 0 0,0
13.10.2019 08:00:00 16,3 15,0 - - 24 13 - - S 999,2 11 0 0,2
13.10.2019 07:00:00 16,2 14,9 - - 26 14 48 26 S 999,7 11 0 0,0
13.10.2019 06:00:00 13,8 13,7 - - 9 5 - - E 1000,5 24 0 1,2
13.10.2019 05:00:00 11,9 11,7 - - 9 5 - - ENE 1001,9 2,2 0 1,0
13.10.2019 04:00:00 11,7 11,5 - - 9 5 - - ENE 1003,3 2,8 0 0,4
13.10.2019 03:00:00 11,7 11,5 - - 9 5 - - ENE 1004,3 5 0 0,2
13.10.2019 02:00:00 11,7 11,4 - - 9 5 - - ENE 1005,0 2,3 0 0,6
13.10.2019 01:00:00 11,7 11,6 - - 8 4 - - ENE 1005,4 5 - 0,6
13.10.2019 00:00:00 11,6 11,4 - - 5 3 - - NE 1006,4 3,7 0 1,2
12.10.2019 23:00:00 11,4 11,2 - - 5 3 - - NE 1007,1 6 0 1,2
12.10.2019 22:00:00 11,5 11,3 - - 5 3 - - NE 1007,2 6 0 1,0
12.10.2019 21:00:00 11,8 11,5 - - 8 4 - - ENE 1007,4 9 0 1,2
12.10.2019 20:00:00 11,9 11,5 - - 4 2 - - NE 1008,1 7 0 1,8
12.10.2019 19:00:00 12,3 11,7 - - 2 1 - - SE 1007,7 7 0 0,6
12.10.2019 18:00:00 12,6 11,6 - - 4 2 - - SE 1007,7 6 0 1,2
12.10.2019 17:00:00 12,9 11,8 - - 5 3 - - SSW 1007,9 9 0 0,8
12.10.2019 16:00:00 13,3 12,5 - - 5 3 - - SSW 1008,3 8 0 1,2
12.10.2019 15:00:00 13,6 12,5 - - 8 4 - - SSW 1008,5 10 0 0,6
12.10.2019 14:00:00 13,6 12,8 - - 8 4 - - S 1008,7 14 0 0,2
12.10.2019 13:00:00 13,4 12,7 - - 8 4 - - S 1008,8 7 0 0,8
12.10.2019 12:00:00 12,7 12,3 - - 5 3 - - - 1009,1 6 0 2,2
12.10.2019 11:00:00 12,1 11,8 - - 4 2 - - E 1009,0 5 0 2,2
12.10.2019 10:00:00 11,6 11,3 14,2 14,2 0 0 - - N 1008,6 6 0 0,8
12.10.2019 09:00:00 11,7 11,4 - - 4 2 - - ESE 1008,2 6 0 1,0
12.10.2019 08:00:00 11,1 10,8 - - 0 0 - - N 1007,7 6 0 1,4
12.10.2019 07:00:00 11,2 10,8 - - 0 0 - - N 1007,7 4,8 0 0,2
12.10.2019 06:00:00 11,3 11,1 - - 4 2 - - - 1007,5 2,0 0 0,0
12.10.2019 05:00:00 11,5 11,1 - - 4 2 - - SE 1007,2 26 0 0,0
12.10.2019 04:00:00 11,3 11,1 - - 2 1 - - S 1007,4 35 0 0,0
12.10.2019 03:00:00 11,2 10,9 - - 5 3 - - W 1007,6 30 0 0,2

tt = Température de l'air
td = dewpoint
tt -20cm = Température de l'air -20cm
tt -100cm = Température de l'air -100cm
ff = Vitesse du vent
fx = gusts
dd = Direction du vent
ppp = reduced air pressure
vv = visibility
sd = Ensoleillement
rr = Quantités de précipitations

stations d'obs. à proximité